This is the latest recevied weather packets stored in our database for station/object M0UPS-13. If no packets are shown the sender has not sent any weather packets the latest 10 day(s).
| Time | Temp. | Humidity | Pressure | Rain* | Wind** | Luminosity | Snow |
|---|---|---|---|---|---|---|---|
| 1777656602 | 21.11° C | 56% | 1019 hPa | 0 mm | - | 72 W/m² | - |
| 1777656302 | 21.11° C | 57% | 1019.2 hPa | 0 mm | - | 71 W/m² | - |
| 1777656002 | 21.11° C | 57% | 1019 hPa | 0 mm | - | 75 W/m² | - |
| 1777655702 | 21.67° C | 55% | 1018.9 hPa | 0 mm | - | 78 W/m² | - |
| 1777655403 | 21.67° C | 54% | 1019 hPa | 0 mm | - | 82 W/m² | - |
| 1777654803 | 22.22° C | 53% | 1019 hPa | 0 mm | - | 120 W/m² | - |
| 1777654202 | 22.22° C | 53% | 1019 hPa | 0 mm | - | 173 W/m² | - |
| 1777653902 | 22.22° C | 54% | 1019.2 hPa | 0 mm | - | 180 W/m² | - |
| 1777653603 | 21.67° C | 56% | 1019 hPa | 0 mm | - | 202 W/m² | - |
| 1777652703 | 22.22° C | 54% | 1019 hPa | 0 mm | - | 99 W/m² | - |
| 1777652102 | 22.78° C | 53% | 1019.3 hPa | 0 mm | - | 250 W/m² | - |
| 1777651803 | 22.78° C | 54% | 1019 hPa | 0 mm | - | 263 W/m² | - |
| 1777651502 | 22.78° C | 55% | 1019 hPa | 0 mm | - | 286 W/m² | - |
| 1777651202 | 22.78° C | 55% | 1019.2 hPa | 0 mm | - | 294 W/m² | - |
| 1777650903 | 22.78° C | 55% | 1019.3 hPa | 0 mm | - | 194 W/m² | - |
| 1777649702 | 23.33° C | 54% | 1019.2 hPa | 0 mm | - | 357 W/m² | - |
| 1777649402 | 23.89° C | 53% | 1019.2 hPa | 0 mm | - | 342 W/m² | - |
| 1777648802 | 24.44° C | 51% | 1019.4 hPa | 0 mm | - | 392 W/m² | - |
| 1777648502 | 23.89° C | 51% | 1019.2 hPa | 0 mm | - | 398 W/m² | - |
| 1777648203 | 23.89° C | 50% | 1019.3 hPa | 0 mm | - | 416 W/m² | - |
| 1777647902 | 23.33° C | 51% | 1019.4 hPa | 0 mm | - | 432 W/m² | - |
| 1777647602 | 23.89° C | 50% | 1019.5 hPa | 0 mm | - | 467 W/m² | - |
| 1777647302 | 24.44° C | 49% | 1019.3 hPa | 0 mm | - | 457 W/m² | - |
| 1777647003 | 24.44° C | 49% | 1019.5 hPa | 0 mm | - | 353 W/m² | - |
| 1777646702 | 23.89° C | 48% | 1019.2 hPa | 0 mm | - | 472 W/m² | - |
* Rain latest hour (hover to see other rain measurements)
** Current wind speed in m/s (hover to see current wind gust speed)